Location: Wells
(51.2093°N, 2.6446°W)
Time: 06:49:08
(UTC+01:00)

PCSat - Pass Details

Date: 14 March 2026
Orbit: 780 x 790 km, 67.1° (Epoch: 13 April)

Event Time Altitude Azimuth Distance (km) Brightness Sun altitude
Exits shadow 01:03:01 19° 13° (NNE) 1,796 11.9 -40.5°
Drops below altitude 10° 01:04:56 10° 27° (NNE) 2,365 12.7 -40.5°
Sets 01:07:38 0° 38° (NE) 3,297 13.5 -40.4°
